sat.trackr.live / text

‹ back to catalog

STARLINK-34307

NORAD 64489 · 2025-133T

PAYLOAD ACTIVE UNKNOWN

§ Identity

Operator
Country
US
Launch date
2025-06-23
Launch site
AFETR
Launch vehicle
Mass (kg)
RCS (m²)

Purposes: comms

External: N2YO · Heavens-Above · Gunter

§ Orbital elements

Epoch: 2026-05-25T05:13:32.301408Z

Period
94.10 min
Inclination
53.1565°
Eccentricity
0.0001144
Mean motion
15.30211164 rev/d
Perigee alt
474.4 km
Apogee alt
476.0 km
Semi-major
6,853.3 km
B*
1.2982e-3
RAAN
121.4421°
Arg perigee
103.5072°
Mean anomaly
256.6056°
Rev number
5,288

§ Raw data

STARLINK-343071 64489U 25133T   26145.21773497  .00038302  00000+0  12982-2 0  99922 64489  53.1565 121.4421 0001144 103.5072 256.6056 15.30211164 52888

JSON: /api/v1/satellites/64489 · /tle

For live sub-satellite position, see the globe view (requires WebGL).

§ Visibility from observer

Set your observer location to see the next 7 days of passes ≥ 10°. The values pass through the URL so the page stays shareable.

No JS? Fill the form by hand. The geolocation button needs JavaScript.